Time,TemperatureF,DewpointF,PressureIn,WindDirection,WindDirectionDegrees,WindSpeedMPH,WindSpeedGustMPH,Humidity,HourlyPrecipIn,Conditions,Clouds,dailyrainin,SoftwareType,DateUTC
2013-04-04 00:02:00,34.0,27.0,-100.00,South,175,5.0,9.0,76,0.00,,,-99.99,,2013-04-04 05:02:00,
2013-04-04 00:12:00,34.0,27.0,-100.00,South,180,6.0,9.0,76,0.00,,,-99.99,,2013-04-04 05:12:00,
2013-04-04 00:23:00,34.0,27.0,-100.00,South,180,6.0,9.0,76,0.00,,,-99.99,,2013-04-04 05:23:00,
2013-04-04 00:32:00,34.0,27.0,-100.00,South,175,4.0,10.0,76,0.00,,,-99.99,,2013-04-04 05:32:00,
2013-04-04 00:42:00,34.0,27.0,-100.00,South,175,4.0,10.0,76,0.00,,,-99.99,,2013-04-04 05:42:00,
2013-04-04 00:52:00,34.0,27.0,-100.00,South,175,4.0,10.0,76,0.00,,,-99.99,,2013-04-04 05:52:00,
2013-04-04 01:02:00,34.0,27.0,-100.00,South,175,4.0,10.0,76,0.00,,,-99.99,,2013-04-04 06:02:00,
2013-04-04 01:12:00,34.0,27.0,-100.00,South,185,5.0,10.0,75,0.00,,,-99.99,,2013-04-04 06:12:00,
2013-04-04 01:22:00,34.0,27.0,-100.00,South,190,6.0,10.0,74,0.00,,,-99.99,,2013-04-04 06:22:00,
2013-04-04 01:32:00,34.0,27.0,-100.00,South,190,6.0,10.0,74,0.00,,,-99.99,,2013-04-04 06:32:00,
2013-04-04 01:42:00,34.0,27.0,-100.00,South,190,6.0,10.0,74,0.00,,,-99.99,,2013-04-04 06:42:00,
2013-04-04 01:52:00,34.0,27.0,-100.00,South,190,6.0,10.0,74,0.00,,,-99.99,,2013-04-04 06:52:00,
2013-04-04 02:02:00,36.0,25.0,-100.00,South,185,7.0,12.0,65,0.00,,,-99.99,,2013-04-04 07:02:00,
2013-04-04 02:12:00,36.0,25.0,-100.00,South,185,7.0,12.0,65,0.00,,,-99.99,,2013-04-04 07:12:00,
2013-04-04 02:22:00,36.0,25.0,-100.00,South,185,7.0,12.0,65,0.00,,,-99.99,,2013-04-04 07:22:00,
2013-04-04 02:32:00,35.0,25.0,-100.00,South,180,4.0,8.0,65,0.00,,,-99.99,,2013-04-04 07:32:00,
2013-04-04 02:43:00,35.0,25.0,-100.00,South,180,4.0,8.0,65,0.00,,,-99.99,,2013-04-04 07:43:00,
2013-04-04 02:53:00,34.0,25.0,-100.00,SW,215,4.0,7.0,68,0.00,,,-99.99,,2013-04-04 07:53:00,
2013-04-04 03:02:00,34.0,25.0,-100.00,SW,215,4.0,7.0,68,0.00,,,-99.99,,2013-04-04 08:02:00,
2013-04-04 03:12:00,34.0,25.0,-100.00,SW,215,4.0,7.0,68,0.00,,,-99.99,,2013-04-04 08:12:00,
2013-04-04 03:23:00,34.0,25.0,-100.00,SW,215,4.0,7.0,68,0.00,,,-99.99,,2013-04-04 08:23:00,
2013-04-04 03:32:00,33.0,26.0,-100.00,SW,215,4.0,8.0,72,0.00,,,-99.99,,2013-04-04 08:32:00,
2013-04-04 03:43:00,34.0,26.0,-100.00,SSW,210,5.0,9.0,72,0.00,,,-99.99,,2013-04-04 08:43:00,
2013-04-04 03:52:00,34.0,26.0,-100.00,SSW,210,5.0,9.0,72,0.00,,,-99.99,,2013-04-04 08:52:00,
2013-04-04 04:02:00,34.0,26.0,-100.00,SSW,210,5.0,9.0,72,0.00,,,-99.99,,2013-04-04 09:02:00,
2013-04-04 04:12:00,34.0,26.0,-100.00,SSW,205,4.0,10.0,72,0.00,,,-99.99,,2013-04-04 09:12:00,
2013-04-04 04:22:00,34.0,26.0,-100.00,SSW,205,4.0,10.0,72,0.00,,,-99.99,,2013-04-04 09:22:00,
2013-04-04 04:33:00,34.0,26.0,-100.00,SSW,205,4.0,10.0,72,0.00,,,-99.99,,2013-04-04 09:33:00,
2013-04-04 04:43:00,34.0,26.0,-100.00,SSW,205,4.0,10.0,72,0.00,,,-99.99,,2013-04-04 09:43:00,
2013-04-04 04:53:00,34.0,26.0,-100.00,SSW,205,4.0,10.0,72,0.00,,,-99.99,,2013-04-04 09:53:00,
2013-04-04 05:04:00,34.0,26.0,-100.00,SW,220,6.0,12.0,73,0.00,,,-99.99,,2013-04-04 10:04:00,
2013-04-04 05:12:00,34.0,26.0,-100.00,SW,220,6.0,12.0,73,0.00,,,-99.99,,2013-04-04 10:12:00,
2013-04-04 05:24:00,34.0,27.0,-100.00,SSW,195,6.0,12.0,73,0.00,,,-99.99,,2013-04-04 10:24:00,
2013-04-04 05:33:00,34.0,27.0,-100.00,SSW,195,6.0,12.0,73,0.00,,,-99.99,,2013-04-04 10:33:00,
2013-04-04 05:42:00,34.0,27.0,-100.00,SSW,195,6.0,12.0,73,0.00,,,-99.99,,2013-04-04 10:42:00,
2013-04-04 05:54:00,34.0,27.0,-100.00,SSW,195,6.0,12.0,73,0.00,,,-99.99,,2013-04-04 10:54:00,
2013-04-04 06:02:00,34.0,27.0,-100.00,SSW,205,5.0,11.0,74,0.00,,,-99.99,,2013-04-04 11:02:00,
2013-04-04 06:12:00,34.0,27.0,-100.00,SSW,205,4.0,11.0,74,0.00,,,-99.99,,2013-04-04 11:12:00,
2013-04-04 06:22:00,34.0,27.0,-100.00,SSW,205,4.0,11.0,74,0.00,,,-99.99,,2013-04-04 11:22:00,
2013-04-04 06:33:00,34.0,27.0,-100.00,SSW,205,4.0,11.0,74,0.00,,,-99.99,,2013-04-04 11:33:00,
2013-04-04 06:42:00,34.0,27.0,-100.00,SSW,205,4.0,11.0,74,0.00,,,-99.99,,2013-04-04 11:42:00,
2013-04-04 06:53:00,34.0,27.0,-100.00,SW,220,4.0,11.0,73,0.00,,,-99.99,,2013-04-04 11:53:00,
2013-04-04 07:02:00,34.0,27.0,-100.00,SW,220,4.0,11.0,73,0.00,,,-99.99,,2013-04-04 12:02:00,
2013-04-04 07:12:00,34.0,26.0,-100.00,SSW,205,3.0,9.0,74,0.00,,,-99.99,,2013-04-04 12:12:00,
2013-04-04 07:22:00,34.0,27.0,-100.00,South,190,2.0,7.0,75,0.00,,,-99.99,,2013-04-04 12:22:00,
2013-04-04 07:32:00,35.0,28.0,-100.00,SW,220,6.0,9.0,75,0.00,,,-99.99,,2013-04-04 12:32:00,
2013-04-04 07:43:00,35.0,28.0,-100.00,SW,220,6.0,9.0,75,0.00,,,-99.99,,2013-04-04 12:43:00,
2013-04-04 07:52:00,35.0,28.0,-100.00,SW,220,6.0,9.0,75,0.00,,,-99.99,,2013-04-04 12:52:00,
2013-04-04 08:02:00,35.0,28.0,-100.00,SW,220,6.0,9.0,75,0.00,,,-99.99,,2013-04-04 13:02:00,
2013-04-04 08:12:00,36.0,28.0,-100.00,SW,230,7.0,12.0,71,0.00,,,-99.99,,2013-04-04 13:12:00,
2013-04-04 08:22:00,36.0,28.0,-100.00,SW,230,7.0,12.0,71,0.00,,,-99.99,,2013-04-04 13:22:00,
2013-04-04 08:32:00,37.0,29.0,-100.00,SW,230,11.0,15.0,70,0.00,,,-99.99,,2013-04-04 13:32:00,
2013-04-04 08:42:00,37.0,29.0,-100.00,SW,230,11.0,15.0,70,0.00,,,-99.99,,2013-04-04 13:42:00,
2013-04-04 08:52:00,38.0,29.0,-100.00,WSW,255,9.0,14.0,70,0.00,,,-99.99,,2013-04-04 13:52:00,
2013-04-04 09:03:00,40.0,30.0,-100.00,WSW,245,7.0,13.0,68,0.00,,,-99.99,,2013-04-04 14:03:00,
2013-04-04 09:12:00,40.0,30.0,-100.00,WSW,255,7.0,14.0,66,0.00,,,-99.99,,2013-04-04 14:12:00,
2013-04-04 09:22:00,40.0,30.0,-100.00,WSW,255,7.0,14.0,66,0.00,,,-99.99,,2013-04-04 14:22:00,
2013-04-04 09:32:00,40.0,31.0,-100.00,West,265,8.0,11.0,68,0.00,,,-99.99,,2013-04-04 14:32:00,
2013-04-04 09:42:00,40.0,31.0,-100.00,West,265,8.0,11.0,68,0.00,,,-99.99,,2013-04-04 14:42:00,
2013-04-04 09:52:00,42.0,31.0,-100.00,West,280,12.0,19.0,65,0.01,,,-99.99,,2013-04-04 14:52:00,
2013-04-04 10:02:00,42.0,31.0,-100.00,West,280,12.0,19.0,65,0.01,,,-99.99,,2013-04-04 15:02:00,
2013-04-04 10:12:00,41.0,31.0,-100.00,West,270,13.0,18.0,68,0.00,,,-99.99,,2013-04-04 15:12:00,
2013-04-04 10:22:00,41.0,31.0,-100.00,West,280,12.0,17.0,68,0.00,,,-99.99,,2013-04-04 15:22:00,
2013-04-04 10:33:00,41.0,31.0,-100.00,West,280,12.0,19.0,68,0.00,,,-99.99,,2013-04-04 15:33:00,
2013-04-04 10:43:00,41.0,31.0,-100.00,West,280,12.0,19.0,68,0.00,,,-99.99,,2013-04-04 15:43:00,
2013-04-04 10:53:00,39.0,33.0,-100.00,West,280,12.0,16.0,77,0.03,,,-99.99,,2013-04-04 15:53:00,
2013-04-04 11:03:00,39.0,33.0,-100.00,West,280,12.0,16.0,77,0.03,,,-99.99,,2013-04-04 16:03:00,
2013-04-04 11:12:00,39.0,33.0,-100.00,West,280,9.0,15.0,79,0.00,,,-99.99,,2013-04-04 16:12:00,
2013-04-04 11:24:00,39.0,33.0,-100.00,West,280,9.0,14.0,80,0.03,,,-99.99,,2013-04-04 16:24:00,
2013-04-04 11:32:00,40.0,34.0,-100.00,West,270,11.0,16.0,80,0.01,,,-99.99,,2013-04-04 16:32:00,
2013-04-04 11:42:00,40.0,34.0,-100.00,West,270,11.0,16.0,80,0.01,,,-99.99,,2013-04-04 16:42:00,
2013-04-04 11:53:00,41.0,35.0,-100.00,West,280,11.0,17.0,80,0.00,,,-99.99,,2013-04-04 16:53:00,
2013-04-04 12:03:00,41.0,35.0,-100.00,West,280,11.0,17.0,80,0.00,,,-99.99,,2013-04-04 17:03:00,
2013-04-04 12:22:00,41.0,35.0,-100.00,WNW,300,11.0,16.0,79,0.00,,,-99.99,,2013-04-04 17:22:00,
2013-04-04 12:33:00,45.0,38.0,-100.00,West,280,12.0,19.0,74,0.00,,,-99.99,,2013-04-04 17:33:00,
2013-04-04 12:42:00,45.0,38.0,-100.00,West,280,12.0,19.0,74,0.00,,,-99.99,,2013-04-04 17:42:00,
2013-04-04 12:52:00,48.0,37.0,-100.00,West,260,11.0,17.0,66,0.00,,,-99.99,,2013-04-04 17:52:00,
2013-04-04 13:02:00,48.0,37.0,-100.00,West,260,11.0,17.0,66,0.00,,,-99.99,,2013-04-04 18:02:00,
2013-04-04 13:12:00,49.0,37.0,-100.00,WNW,300,10.0,16.0,61,0.00,,,-99.99,,2013-04-04 18:12:00,
2013-04-04 13:22:00,49.0,37.0,-100.00,WNW,300,10.0,16.0,61,0.00,,,-99.99,,2013-04-04 18:22:00,
2013-04-04 13:32:00,51.0,35.0,-100.00,West,270,12.0,17.0,54,0.00,,,-99.99,,2013-04-04 18:32:00,
2013-04-04 13:42:00,51.0,35.0,-100.00,West,270,12.0,17.0,54,0.00,,,-99.99,,2013-04-04 18:42:00,
2013-04-04 13:52:00,51.0,35.0,-100.00,WSW,255,14.0,20.0,54,0.00,,,-99.99,,2013-04-04 18:52:00,
2013-04-04 14:02:00,51.0,35.0,-100.00,WSW,255,14.0,20.0,54,0.00,,,-99.99,,2013-04-04 19:02:00,
2013-04-04 14:12:00,51.0,32.0,-100.00,NNW,340,13.0,20.0,47,0.00,,,-99.99,,2013-04-04 19:12:00,
2013-04-04 14:22:00,51.0,32.0,-100.00,West,275,12.0,17.0,48,0.00,,,-99.99,,2013-04-04 19:22:00,
2013-04-04 14:32:00,51.0,33.0,-100.00,West,265,12.0,20.0,48,0.00,,,-99.99,,2013-04-04 19:32:00,
2013-04-04 14:42:00,51.0,33.0,-100.00,WSW,250,13.0,23.0,49,0.00,,,-99.99,,2013-04-04 19:42:00,
2013-04-04 14:52:00,51.0,34.0,-100.00,WSW,240,15.0,22.0,50,0.00,,,-99.99,,2013-04-04 19:52:00,
2013-04-04 15:03:00,51.0,34.0,-100.00,WSW,240,15.0,22.0,50,0.00,,,-99.99,,2013-04-04 20:03:00,
2013-04-04 15:12:00,53.0,34.0,-100.00,WSW,240,12.0,21.0,48,0.00,,,-99.99,,2013-04-04 20:12:00,
2013-04-04 15:22:00,53.0,34.0,-100.00,WSW,240,12.0,21.0,48,0.00,,,-99.99,,2013-04-04 20:22:00,
2013-04-04 15:32:00,53.0,34.0,-100.00,NW,320,15.0,21.0,48,0.00,,,-99.99,,2013-04-04 20:32:00,
2013-04-04 15:42:00,53.0,34.0,-100.00,NW,320,15.0,21.0,48,0.00,,,-99.99,,2013-04-04 20:42:00,
2013-04-04 15:52:00,53.0,34.0,-100.00,NNW,335,11.0,16.0,48,0.00,,,-99.99,,2013-04-04 20:52:00,
2013-04-04 16:02:00,53.0,34.0,-100.00,NNW,335,11.0,16.0,48,0.00,,,-99.99,,2013-04-04 21:02:00,
2013-04-04 16:12:00,53.0,33.0,-100.00,North,0,13.0,22.0,46,0.00,,,-99.99,,2013-04-04 21:12:00,
2013-04-04 16:22:00,53.0,32.0,-100.00,WNW,285,11.0,21.0,45,0.00,,,-99.99,,2013-04-04 21:22:00,
2013-04-04 16:32:00,53.0,32.0,-100.00,NNW,345,7.0,17.0,44,0.00,,,-99.99,,2013-04-04 21:32:00,
2013-04-04 16:43:00,53.0,31.0,-100.00,NNW,340,8.0,15.0,42,0.00,,,-99.99,,2013-04-04 21:43:00,
2013-04-04 16:52:00,52.0,31.0,-100.00,North,5,8.0,16.0,44,0.00,,,-99.99,,2013-04-04 21:52:00,
2013-04-04 17:03:00,52.0,31.0,-100.00,North,5,8.0,16.0,44,0.00,,,-99.99,,2013-04-04 22:03:00,
2013-04-04 17:12:00,52.0,32.0,-100.00,North,5,8.0,17.0,46,0.00,,,-99.99,,2013-04-04 22:12:00,
2013-04-04 17:23:00,52.0,32.0,-100.00,North,5,8.0,17.0,46,0.00,,,-99.99,,2013-04-04 22:23:00,
2013-04-04 17:33:00,51.0,32.0,-100.00,West,265,12.0,20.0,48,0.00,,,-99.99,,2013-04-04 22:33:00,
2013-04-04 17:42:00,51.0,32.0,-100.00,West,265,12.0,20.0,48,0.00,,,-99.99,,2013-04-04 22:42:00,
2013-04-04 17:52:00,51.0,32.0,-100.00,NW,325,10.0,17.0,48,0.00,,,-99.99,,2013-04-04 22:52:00,
2013-04-04 18:03:00,51.0,32.0,-100.00,NW,325,10.0,17.0,48,0.00,,,-99.99,,2013-04-04 23:03:00,
2013-04-04 18:12:00,50.0,32.0,-100.00,West,260,9.0,18.0,48,0.00,,,-99.99,,2013-04-04 23:12:00,
2013-04-04 18:22:00,50.0,32.0,-100.00,West,260,9.0,19.0,49,0.00,,,-99.99,,2013-04-04 23:22:00,
2013-04-04 18:32:00,49.0,31.0,-100.00,NNW,340,8.0,15.0,48,0.00,,,-99.99,,2013-04-04 23:32:00,
2013-04-04 18:42:00,49.0,31.0,-100.00,NNW,340,8.0,15.0,48,0.00,,,-99.99,,2013-04-04 23:42:00,
2013-04-04 18:52:00,49.0,30.0,-100.00,NNW,345,8.0,17.0,48,0.00,,,-99.99,,2013-04-04 23:52:00,
2013-04-04 19:02:00,48.0,30.0,-100.00,West,275,8.0,12.0,49,0.00,,,-99.99,,2013-04-05 00:02:00,
2013-04-04 19:12:00,48.0,30.0,-100.00,West,275,8.0,12.0,49,0.00,,,-99.99,,2013-04-05 00:12:00,
2013-04-04 19:22:00,47.0,30.0,-100.00,NNW,345,6.0,11.0,50,0.00,,,-99.99,,2013-04-05 00:22:00,
2013-04-04 19:32:00,45.0,30.0,-100.00,WSW,250,8.0,12.0,53,0.00,,,-99.99,,2013-04-05 00:32:00,
2013-04-04 19:42:00,45.0,30.0,-100.00,WSW,250,8.0,12.0,53,0.00,,,-99.99,,2013-04-05 00:42:00,
2013-04-04 19:52:00,43.0,30.0,-100.00,WNW,300,8.0,10.0,61,0.00,,,-99.99,,2013-04-05 00:52:00,
2013-04-04 20:02:00,43.0,30.0,-100.00,WNW,300,8.0,10.0,61,0.00,,,-99.99,,2013-04-05 01:02:00,
2013-04-04 20:12:00,42.0,31.0,-100.00,West,280,7.0,10.0,64,0.00,,,-99.99,,2013-04-05 01:12:00,
2013-04-04 20:22:00,42.0,30.0,-100.00,West,260,7.0,10.0,64,0.00,,,-99.99,,2013-04-05 01:22:00,
2013-04-04 20:32:00,40.0,30.0,-100.00,West,265,6.0,11.0,67,0.00,,,-99.99,,2013-04-05 01:32:00,
2013-04-04 20:42:00,39.0,30.0,-100.00,West,260,6.0,9.0,70,0.00,,,-99.99,,2013-04-05 01:42:00,
2013-04-04 20:52:00,38.0,30.0,-100.00,WSW,250,8.0,11.0,72,0.00,,,-99.99,,2013-04-05 01:52:00,
2013-04-04 21:03:00,38.0,30.0,-100.00,WSW,250,8.0,11.0,72,0.00,,,-99.99,,2013-04-05 02:03:00,
2013-04-04 21:12:00,39.0,31.0,-100.00,West,260,7.0,13.0,72,0.00,,,-99.99,,2013-04-05 02:12:00,
2013-04-04 21:22:00,39.0,31.0,-100.00,West,260,7.0,13.0,72,0.00,,,-99.99,,2013-04-05 02:22:00,
2013-04-04 21:32:00,38.0,30.0,-100.00,WSW,255,8.0,11.0,72,0.00,,,-99.99,,2013-04-05 02:32:00,
2013-04-04 21:42:00,38.0,30.0,-100.00,West,265,7.0,12.0,72,0.00,,,-99.99,,2013-04-05 02:42:00,
2013-04-04 21:52:00,38.0,29.0,-100.00,NNW,345,4.0,12.0,72,0.00,,,-99.99,,2013-04-05 02:52:00,
2013-04-04 22:02:00,38.0,29.0,-100.00,NNW,345,4.0,12.0,72,0.00,,,-99.99,,2013-04-05 03:02:00,
2013-04-04 22:12:00,37.0,29.0,-100.00,NNW,345,8.0,12.0,71,0.00,,,-99.99,,2013-04-05 03:12:00,
2013-04-04 22:22:00,37.0,29.0,-100.00,NNW,345,8.0,12.0,71,0.00,,,-99.99,,2013-04-05 03:22:00,
2013-04-04 22:32:00,37.0,29.0,-100.00,North,0,6.0,9.0,72,0.00,,,-99.99,,2013-04-05 03:32:00,
2013-04-04 22:43:00,37.0,29.0,-100.00,North,0,6.0,9.0,72,0.00,,,-99.99,,2013-04-05 03:43:00,
2013-04-04 22:53:00,37.0,29.0,-100.00,North,0,6.0,9.0,72,0.00,,,-99.99,,2013-04-05 03:53:00,
2013-04-04 23:02:00,36.0,29.0,-100.00,North,0,4.0,11.0,75,0.00,,,-99.99,,2013-04-05 04:02:00,
2013-04-04 23:12:00,35.0,29.0,-100.00,WSW,250,6.0,9.0,77,0.00,,,-99.99,,2013-04-05 04:12:00,
2013-04-04 23:22:00,35.0,29.0,-100.00,WSW,250,6.0,9.0,77,0.00,,,-99.99,,2013-04-05 04:22:00,
2013-04-04 23:32:00,34.0,29.0,-100.00,WSW,250,6.0,12.0,80,0.00,,,-99.99,,2013-04-05 04:32:00,
2013-04-04 23:42:00,34.0,29.0,-100.00,WSW,250,6.0,12.0,80,0.00,,,-99.99,,2013-04-05 04:42:00,
2013-04-04 23:52:00,34.0,29.0,-100.00,WSW,250,6.0,12.0,80,0.00,,,-99.99,,2013-04-05 04:52:00,